This is the latest recevied weather packets stored in our database for station/object N8ESC. If no packets are shown the sender has not sent any weather packets the latest 10 day(s).
| Time | Temp. | Humidity | Pressure | Rain* | Wind** | Luminosity | Snow |
|---|---|---|---|---|---|---|---|
| 1778029502 | 6.11° C | 60% | 1008 hPa | 0 mm | - | 1 W/m² | - |
| 1778029197 | 6.11° C | 61% | 1007.7 hPa | 0 mm | - | 2 W/m² | - |
| 1778028895 | 6.11° C | 61% | 1007.8 hPa | 0 mm | - | 3 W/m² | - |
| 1778028590 | 6.11° C | 59% | 1007.7 hPa | 0 mm | - | 4 W/m² | - |
| 1778028289 | 6.67° C | 60% | 1007.6 hPa | 0 mm | - | 6 W/m² | - |
| 1778027984 | 7.78° C | 56% | 1007.5 hPa | 0 mm | - | 8 W/m² | - |
| 1778027681 | 7.78° C | 44% | 1007.4 hPa | 0 mm | - | 10 W/m² | - |
| 1778027377 | 8.33° C | 43% | 1007.4 hPa | 0 mm | - | 12 W/m² | - |
| 1778027073 | 8.33° C | 43% | 1007.5 hPa | 0 mm | - | 16 W/m² | - |
| 1778026769 | 8.33° C | 43% | 1007.4 hPa | 0 mm | - | 18 W/m² | - |
| 1778026466 | 8.33° C | 43% | 1007.2 hPa | 0 mm | - | 22 W/m² | - |
| 1778026163 | 8.33° C | 43% | 1007.3 hPa | 0 mm | - | 25 W/m² | - |
| 1778025861 | 8.33° C | 43% | 1007.2 hPa | 0 mm | - | 33 W/m² | - |
| 1778025558 | 8.33° C | 43% | 1007.1 hPa | 0 mm | - | 39 W/m² | - |
| 1778025256 | 8.33° C | 43% | 1007 hPa | 0 mm | - | 42 W/m² | - |
| 1778024952 | 8.33° C | 42% | 1006.8 hPa | 0 mm | - | 47 W/m² | - |
| 1778024650 | 8.89° C | 41% | 1006.8 hPa | 0 mm | - | 55 W/m² | - |
| 1778024346 | 8.89° C | 40% | 1006.8 hPa | 0 mm | - | 58 W/m² | - |
| 1778024044 | 8.89° C | 40% | 1006.5 hPa | 0 mm | - | 67 W/m² | - |
| 1778023741 | 9.44° C | 40% | 1006.4 hPa | 0 mm | - | 82 W/m² | - |
| 1778023439 | 9.44° C | 40% | 1006.4 hPa | 0 mm | - | 84 W/m² | - |
| 1778023136 | 8.89° C | 40% | 1006.4 hPa | 0 mm | - | 88 W/m² | - |
| 1778022833 | 8.89° C | 40% | 1006.4 hPa | 0 mm | - | 82 W/m² | - |
| 1778022531 | 8.89° C | 41% | 1006.5 hPa | 0 mm | - | 81 W/m² | - |
| 1778022228 | 8.89° C | 41% | 1006.4 hPa | 0 mm | - | 97 W/m² | - |
* Rain latest hour (hover to see other rain measurements)
** Current wind speed in m/s (hover to see current wind gust speed)